Location: Colorado Springs
(38.8340°N, 104.8210°W)
Time: 09:58:19
(UTC-06:00)

Envisat - Pass Details

Date: 15 October 2017
Orbit: 764 x 766 km, 98.2° (Epoch: 20 October)

Event Time Altitude Azimuth Distance (km) Brightness Sun altitude
Exits shadow 21:03:28 34° 334° (NNW) 1,237 4.3 -32.3°
Drops below altitude 10° 21:06:21 10° 343° (NNW) 2,308 5.8 -32.9°
Sets 21:08:41 0° 345° (NNW) 3,238 6.6 -33.3°
